Regional Weather Roundup
Issued by NWS

Home | Current Version | Previous Version | Text Only | Print | Product List | Glossary Off
Versions: 1 2 3 4 5 6 7 8 9 10 11 12 13 14 15 16 17 18 19 20 21 22 23 24 25 26 27 28 29 30 31 32 33 34 35 36 37 38 39 40 41 42 43 44 45 46 47 48 49 50

000
ASUS43 KOAX 010710
RWRNE

WEATHER ROUNDUP FOR NEBRASKA
NATIONAL WEATHER SERVICE OMAHA NE
200 AM CDT WED APR 01 2015

NOTES: SATELLITE DATA IS BEING USED TO AUGMENT CLOUD COVER ABOVE
       12000 FEET.
       "FAIR" INDICATES FEW OR NO CLOUDS BELOW 12,000 FEET WITH NO
       SIGNIFICANT WEATHER AND/OR OBSTRUCTIONS TO VISIBILITY.

  * THESE STATIONS DO NOT REPORT WEATHER SUCH AS RAIN...SNOW OR FOG.

NEZ001>004-019>022-054>056-010800-
NEBRASKA PANHANDLE

CITY           SKY/WX    TMP DP  RH WIND       PRES   REMARKS
SCOTTSBLUFF    PTCLDY    63  20  19 SW14      29.66F
ALLIANCE       PTCLDY    43  21  41 S12       29.67F
CHADRON        MOCLDY    61  22  22 W10       29.60S
KIMBALL        CLEAR     51  19  28 S10       29.72F
SIDNEY         CLEAR     53  23  31 SW13      29.74F
$$

NEZ057>060-069>072-079>082-010800-
SOUTHWEST NEBRASKA

CITY           SKY/WX    TMP DP  RH WIND       PRES   REMARKS
NORTH PLATTE   CLEAR     57  28  33 S9        29.73F
IMPERIAL         N/A     58  27  30 S16       29.75F
LEXINGTON      CLEAR     61  31  32 S20       29.76S
MCCOOK         CLEAR     59  32  36 SW8       29.76F
OGALLALA       CLEAR     51  23  33 W6        29.73S
$$

NEZ005>010-023>029-035>040-094-010800-
NORTH CENTRAL NEBRASKA

CITY           SKY/WX    TMP DP  RH WIND       PRES   REMARKS
VALENTINE      PTCLDY    60  26  27 S20       29.63F
AINSWORTH      PTCLDY    57  29  34 S16       29.66F
BROKEN BOW     CLEAR     61  32  33 S18G25    29.73F
O`NEILL        PTCLDY    58  32  37 S12       29.71F
ORD            CLEAR     58  31  35 S13       29.73F
THEDFORD       PTCLDY    60  30  32 S12       29.71S
$$

NEZ041-046>049-061>064-073>077-083>087-010800-
SOUTH CENTRAL NEBRASKA

CITY           SKY/WX    TMP DP  RH WIND       PRES   REMARKS
GRAND ISLAND   CLEAR     56  32  40 S17       29.78F
AURORA         CLEAR     56  32  40 S14       29.79S
HASTINGS       CLEAR     56  32  40 S9        29.78F
HEBRON         CLEAR     58  32  36 S10       29.82S
HOLDREGE       CLEAR     53  31  42 S8        29.78F
KEARNEY *      CLEAR     55  30  38 SE16      29.77F
YORK           PTCLDY    55  32  41 S15       29.80F
$$

NEZ011>018-030>034-042>045-010800-
NORTHEAST NEBRASKA

CITY           SKY/WX    TMP DP  RH WIND       PRES   REMARKS
NORFOLK        CLEAR     58  33  39 S16       29.76F
ALBION         CLEAR     53  31  43 SE8       29.77F
BLAIR          CLEAR     59  30  32 S12       29.83S
COLUMBUS *     CLEAR     59  30  33 S15       29.81S
FREMONT        CLEAR     57  32  38 SE10G16   29.82S
TEKAMAH        CLEAR     49  29  46 S5        29.81F
WAYNE          CLEAR     52  33  47 S10       29.78F
$$

NEZ050>053-065>068-078-088>093-010800-
SOUTHEAST NEBRASKA

CITY           SKY/WX    TMP DP  RH WIND       PRES   REMARKS
LINCOLN        CLEAR     51  35  54 S10       29.83F
OMAHA EPPLEY   CLEAR     58  33  39 S10       29.83F
BEATRICE       CLEAR     57  33  40 SE12      29.83F
FALLS CITY     CLEAR     52  33  48 SE9       29.87F
NEBRASKA CITY  CLEAR     54  29  38 S9        29.85F
PLATTSMOUTH    CLEAR     58  27  30 SE9       29.85S
$$

NEZ044-045-051>053-067-010800-
OMAHA AREA

CITY           SKY/WX    TMP DP  RH WIND       PRES   REMARKS
OMAHA EPPLEY   CLEAR     58  33  39 S10       29.83F
BLAIR          CLEAR     59  30  32 S12       29.83S
FREMONT        CLEAR     57  32  38 SE10G16   29.82S
MILLARD        CLEAR     57  33  40 SE3       29.83F
OFFUTT AFB     CLEAR     51  32  48 E8        29.84S
PLATTSMOUTH    CLEAR     58  27  30 SE9       29.85S
WAHOO          FAIR      49  32  52 SE8       29.82S
$$



USA.gov is the U.S. government's official web portal to all federal, state and local government web resources and services.